STARLINK-35948, 66633

Orbit data source: Space-Track

STARLINK-35948, 66633 is a payload satellite owned by SpaceX/Seattle (US) in LEO that was launched on Sun, 23 Nov 2025 UTC via an FALCON 9 launch vehicle from the Air Force Western Test Range (AFWTR). Payload-class satellites include a variety of spacecraft equipped with specific instruments for various scientific and technological missions. These include communications satellites like Starlink; space stations such as the ISS; scientific satellites like the Hubble; Earth observation satellites from companies like Planet Labs, Umbra, and HawkEye 360; GPS; miniature CubeSats for education and research; and military/defense satellites.

Loading next visibility...
Identifier
66633, 2025-271S
Orbit
LEO
Country
Flag of USUS
Related business
Manufacturer
SpaceX/Seattle
Mission
Operational Commercial Communications
Bus & Motor
STARLINK V2MO, Unknown motor
Mass
575 kg wet, ~530 kg dry
Launch date (UTC)
2025-11-23 (10 months ago)
Launch vehicle
FALCON 9
Launch site
Air Force Western Test Range (AFWTR)
Object type
Payload
Rocket body
Debris
Shape & HBR
Box + 1 Pan, 17.7 m
Radar Cross Section
41.120 m², Large (>1 m²)

Expand to show TLE details & history
Last TLE update: 2 days ago

TLE from 2 days ago
0 STARLINK-35948
1 66633U 25271S   26264.40774937  .00009421  00000-0  28960-3 0  9996
2 66633  53.1576 305.7633 0000889 108.9951 251.1148 15.34401672 47600
Epoch: 2026-09-21T09:47Z
TLE epoch observation values (Epoch: 2026-09-21T09:47:09.545Z)
Latitude
-0.00002°
Longitude
158.6855°
Altitude
463.796 km
Speed
7.636 km/s
True Right ascension
20h 23m 03s
True Declination
0° 00' 00"
Sunlit
Object was in full shadow at epoch
Visualization orbit readout
Latitude
Unknown
Longitude
Unknown
Altitude
Unknown
Speed
Unknown
Apparent Right ascension
Unknown
Apparent Declination
Unknown
Sunlit
N/A
Visualization observer readout
Local Sidereal Time
16:25:27
Azimuth
Unknown
Elevation
Unknown
Doppler factor
Unknown
Orbital elements
Apogee altitude
463.564 km
Perigee altitude
462.347 km
Semi-major axis
6,841.093 km
Eccentricity
0.00009
Inclination
53.1576°
RAAN
305.7633°
Arg. of periapsis
108.9951°
True anomaly
251.10516°
Mean anomaly
251.1148°
Eccentric anomaly
251.10998°
Mean motion
3.83579 °/min
Orbital period
93.85 mins
BSTAR
0.0002896
Loading maneuver chart data...
Computing Atmospheric mass density...
Loading historical data...
Loading historical data...
Loading historical data...
Loading historical data...
Loading historical data...
Loading historical data...
Loading historical data...

Documentation

Showing up to 5 results
|